Lapse_Rate
5.5 4.8 5.0 5.7 6.0 6.0 6.2 5.9 5.8 5.9 5.7 5.9 6.2 6.4 6.7 6.6 6.4 6.0 6.0 5.9 5.1 5.2 5.0 5.1 5.6 5.2 6.4 6.4 6.1 6.2 6.1 5.7 6.8 8.7 8.0 5.9 4.2 5.2 5.4 5.7 5.1 4.8 5.4
4.4 4.1 4.4 5.4 5.6 6.2 5.9 6.0 6.2 5.9 5.8 6.0 6.3 6.2 6.3 6.6 6.4 5.9 6.0 6.8 5.9 5.8 5.9 5.7 5.6 6.3 5.1 5.5 6.4 6.0 6.7 6.8 6.2 6.2 7.4 6.5 6.2 5.5 4.9 4.1 5.5 5.8 5.7
4.0 4.4 4.4 5.2 5.5 5.8 6.3 6.1 6.2 6.0 6.0 6.4 6.2 6.2 6.2 6.3 6.2 5.9 5.7 6.1 6.3 6.3 6.0 5.7 5.6 5.7 5.3 6.4 6.3 6.9 8.3 8.8 8.0 5.9 5.9 7.0 4.7 4.8 5.3 5.5 5.6 5.0 4.6
4.6 4.7 4.6 4.5 4.6 5.3 5.7 6.0 5.8 5.8 6.3 6.3 6.3 6.3 6.5 6.5 6.5 6.2 6.0 5.7 5.7 6.1 5.9 5.8 5.8 5.7 5.6 6.0 6.4 6.2 6.4 6.5 8.6 6.4 4.6 5.3 5.2 4.8 5.8 6.0 6.4 9.0 6.6
4.1 4.5 4.8 4.7 4.5 4.7 5.1 5.6 5.8 5.9 6.2 6.4 6.5 6.4 6.4 6.7 7.5 6.9 6.4 6.2 6.0 6.0 6.1 5.8 6.0 5.3 3.6 4.4 7.2 7.2 6.8 7.2 8.9 8.8 7.8 8.3 8.8 8.9 8.8 9.2 8.8 7.7 6.4
4.0 4.0 4.2 4.2 4.1 4.2 4.6 4.8 5.2 5.5 5.7 5.9 6.0 6.5 6.7 7.3 5.0 1.1 3.6 7.5 7.0 6.5 6.1 6.2 6.0 3.6 2.5 -0.3 -0.2 0.3 3.2 5.7 5.8 8.4 8.7 8.6 6.3 7.2 9.0 8.9 8.8 7.9 7.0
4.8 3.4 4.2 3.2 4.0 4.7 4.6 4.9 4.9 4.8 5.2 5.4 5.3 5.7 6.0 6.2 1.7 -0.2 0.1 5.5 6.9 7.2 6.6 6.5 6.9 8.5 4.6 5.2 1.4 -1.4 -1.5 -1.6 -0.2 4.9 6.0 5.8 6.3 6.2 6.5 6.0 7.2 6.0 5.1
5.7 5.6 4.6 3.2 4.5 3.7 4.3 4.0 4.5 4.5 4.5 4.7 4.9 4.8 5.0 5.3 0.3 -1.2 -1.0 4.3 6.2 6.2 6.2 6.1 6.1 5.6 5.4 5.1 5.9 6.3 5.9 5.6 4.9 3.7 3.5 4.6 5.4 5.7 5.8 5.8 5.0 3.9 1.3
6.7 5.8 5.6 5.3 4.0 4.8 4.5 4.5 4.6 4.3 4.0 4.1 4.3 4.3 4.3 4.4 -0.8 -2.1 -1.0 4.6 5.6 5.6 5.8 5.5 5.6 5.4 2.7 -1.1 4.3 4.9 5.1 5.5 5.8 1.8 1.5 2.0 1.6 0.8 1.0 5.2 3.9 2.9 3.1
3.5 3.3 2.0 2.1 2.5 3.5 3.9 3.5 4.3 4.5 4.7 5.5 4.8 4.4 3.4 4.1 -0.2 -3.1 -1.7 5.3 6.1 6.2 5.7 5.6 1.0 2.8 0.4 -2.2 4.0 5.4 5.9 5.5 6.2 6.7 6.6 2.6 0.3 2.5 -0.8 2.8 5.4 3.8 3.1
-1.9 3.3 2.0 1.2 1.5 2.1 3.0 3.8 4.9 5.0 5.6 5.8 5.4 5.5 5.2 4.1 3.4 -3.7 -4.4 4.1 6.0 6.6 6.7 7.0 7.2 -0.5 -2.8 -3.0 -3.1 4.8 5.2 5.5 6.0 6.6 6.7 6.7 6.4 5.9 5.9 4.5 4.6 4.2 2.2
2.0 3.8 2.7 0.3 1.5 3.2 1.9 3.1 4.2 5.0 5.0 6.1 6.3 5.9 6.6 5.3 -0.6 -2.0 -5.1 -4.5 2.0 5.9 6.6 7.3 7.0 0.1 -3.2 -3.8 -2.5 -0.5 -1.8 -0.7 5.4 5.5 4.9 4.4 5.8 5.7 5.1 3.6 3.1 3.6 3.4
4.8 4.2 1.2 2.0 3.0 3.8 3.6 3.9 4.3 4.0 3.9 4.8 5.6 5.1 5.9 7.1 6.1 -2.7 -4.0 -5.2 -5.2 0.5 4.8 4.7 0.4 -1.9 -3.3 -2.3 -4.3 -3.5 -3.6 3.6 3.2 3.1 2.9 3.0 4.5 5.3 3.4 1.8 1.0 0.7 0.4
4.7 4.2 4.1 4.1 3.6 4.3 4.6 4.6 4.3 3.3 2.7 4.1 4.8 5.0 6.4 7.1 6.0 4.2 2.5 0.3 -3.0 -2.0 -0.9 2.1 2.9 -0.0 -1.8 0.9 1.1 2.2 2.2 4.2 3.3 2.5 3.1 3.7 3.3 1.0 1.4 0.9 0.0 0.1 0.9
6.0 5.5 5.1 6.0 5.0 4.1 4.5 4.2 3.7 3.0 -0.5 1.1 1.0 1.5 3.3 4.4 3.2 -4.4 -0.7 4.7 5.6 2.6 1.5 3.3 3.9 4.2 4.0 4.2 4.1 3.2 2.6 2.2 2.1 2.2 2.1 2.4 1.7 1.2 0.5 -0.7 -0.1 1.2 1.7
6.5 5.3 4.5 5.3 5.6 3.2 2.6 4.3 2.2 1.0 -3.0 -4.0 -4.8 -2.1 -0.3 -3.0 -5.9 -7.0 -7.3 -5.8 -5.5 -4.1 0.7 4.2 4.3 4.8 4.7 5.6 5.4 4.7 3.5 2.7 2.8 2.1 3.9 2.9 1.9 1.1 0.6 -0.2 0.0 1.7 2.3
4.4 4.9 4.6 3.6 5.3 4.7 3.4 3.1 2.9 5.1 1.0 -2.6 -3.1 -3.2 -4.8 -6.3 -7.3 -7.5 -7.6 -8.0 -7.8 -3.5 1.5 3.9 4.4 5.5 5.8 5.8 6.0 6.0 6.1 7.0 5.9 5.5 4.7 2.8 1.9 0.7 0.3 0.3 0.2 0.3 1.4
3.8 2.0 4.7 4.3 4.4 4.6 4.2 3.8 3.6 3.7 3.1 3.9 1.6 -2.2 -4.0 -5.2 -5.7 -5.9 -6.6 -5.4 2.7 -1.6 1.2 3.1 4.0 4.6 5.4 5.5 5.7 6.5 7.4 6.7 6.7 5.9 3.5 2.5 1.6 1.5 0.8 0.4 -0.0 -0.4 0.9
4.2 4.1 4.6 4.5 5.0 4.0 5.4 5.8 4.1 2.7 2.9 3.9 3.6 2.7 1.3 -2.5 -2.9 -3.2 -3.4 0.9 1.4 2.1 2.1 2.6 2.9 3.6 4.0 4.2 5.0 4.6 6.5 6.6 6.4 4.6 3.0 2.3 2.3 1.9 2.1 1.0 -0.3 -1.0 1.1
4.2 2.4 3.2 5.2 5.0 5.3 5.8 6.2 6.5 5.9 5.3 3.5 2.4 1.7 1.1 1.7 1.8 0.3 -0.2 -0.2 0.2 0.2 0.1 1.1 0.6 0.2 0.3 0.7 1.7 1.8 2.7 3.7 3.8 2.8 1.9 1.6 1.7 1.6 1.4 0.7 0.5 -0.1 -0.0
6.4 6.5 3.3 6.1 6.4 5.6 6.0 5.5 5.6 6.0 6.2 6.1 4.3 2.4 -2.9 2.2 2.1 1.3 0.7 0.1 -0.4 -0.5 -0.6 -0.4 -0.4 -1.0 -1.4 -1.7 -0.6 1.1 1.7 1.6 1.8 1.3 2.0 1.7 1.0 0.8 0.7 0.9 0.8 1.7 3.6
6.1 6.8 7.4 7.6 6.4 6.2 6.1 6.1 6.2 6.5 6.6 6.6 6.5 5.7 0.5 4.2 3.2 2.2 1.4 0.6 -0.3 -1.2 -1.7 -1.3 -0.9 -1.6 -1.7 -2.4 -2.6 -2.1 -0.7 0.3 1.1 1.4 1.1 0.5 0.5 0.3 0.4 1.0 2.0 2.8 3.5
7.0 7.2 7.9 8.0 7.6 5.9 8.4 7.9 7.2 7.0 7.2 7.3 7.2 7.2 7.0 6.3 5.6 4.1 2.8 1.4 0.2 -1.0 -1.9 -2.0 -1.5 -1.4 -2.3 -2.9 -3.3 -3.6 -3.1 -2.6 -2.4 -1.4 1.9 2.1 1.4 1.7 2.0 2.5 3.3 3.2 3.3
7.4 7.8 8.7 9.2 8.8 8.4 9.1 9.1 9.2 6.0 7.4 9.0 9.2 8.9 7.8 7.4 7.3 6.0 5.2 3.9 2.7 1.0 -0.4 -1.3 -1.9 -2.1 -2.3 -2.6 -2.4 -2.5 -3.8 -5.5 -3.9 -1.4 2.3 3.5 3.2 1.7 2.5 2.3 2.6 2.6 3.1
8.0 8.2 9.1 9.0 8.9 9.1 9.1 9.2 9.3 9.3 9.4 9.4 9.3 9.3 9.3 9.0 8.1 7.6 6.6 5.5 4.2 4.2 3.6 2.1 0.7 0.1 -0.8 -1.5 -2.0 -2.8 -5.5 -7.4 -5.2 -5.6 0.8 3.8 4.9 4.7 3.9 2.3 2.5 2.6 2.8
8.7 8.5 8.5 8.7 8.9 9.0 9.1 9.1 9.3 9.3 9.3 9.5 9.5 9.5 9.5 9.3 9.3 8.6 7.8 7.3 7.2 6.7 5.5 5.0 4.0 2.3 1.5 -0.3 -1.5 -4.2 -6.3 -6.5 -5.1 -5.3 -2.0 1.3 2.5 2.8 2.6 2.7 2.8 2.4 2.7
Wind_Speed
16 14 13 13 12 10 9 9 10 9 8 9 9 9 9 8 8 8 7 6 6 6 6 6 7 5 4 4 4 5 5 5 7 10 8 10 11 11 12 14 14 14 13
15 14 15 14 13 13 11 10 9 9 9 10 10 9 9 9 9 10 10 8 9 8 8 8 8 5 7 6 6 7 7 7 8 14 11 10 11 12 11 12 11 12 12
15 16 15 15 14 15 13 11 10 9 8 9 10 11 10 9 9 10 11 11 10 10 10 10 9 8 8 8 8 8 8 8 9 10 13 9 7 8 11 11 10 9 11
16 16 15 15 15 15 12 12 11 11 10 9 10 11 11 10 10 10 10 11 11 10 11 11 11 11 11 10 9 10 9 9 10 8 11 11 9 10 9 10 9 6 6
15 15 15 14 12 11 11 13 12 12 12 12 11 11 11 11 10 11 11 11 12 12 12 12 12 13 12 12 10 10 10 10 10 9 10 11 11 10 11 11 10 9 7
12 14 13 11 11 12 12 12 12 13 13 12 13 14 14 11 12 11 13 12 13 13 13 14 14 13 14 15 16 17 15 12 13 11 12 13 14 12 11 10 9 8 5
13 9 10 11 12 12 12 13 14 13 13 14 14 15 16 16 12 13 14 14 15 15 15 15 15 13 12 15 14 17 17 18 19 15 14 14 14 13 11 11 9 7 6
12 12 10 9 10 9 9 11 12 11 13 13 14 15 15 15 15 16 17 17 15 17 17 17 17 17 16 16 16 16 17 16 14 11 14 16 14 13 10 8 8 3 0
8 9 10 10 8 10 11 12 12 10 12 13 13 15 15 16 14 17 14 16 16 17 17 17 17 17 17 13 16 17 17 17 14 20 22 21 20 18 12 7 8 5 3
3 1 2 2 4 6 9 9 9 12 13 12 14 14 14 16 13 15 14 12 14 13 15 15 15 19 15 11 14 15 15 16 14 13 10 10 15 12 12 11 8 7 3
10 6 2 4 4 5 7 8 9 11 13 13 14 13 14 15 15 14 17 14 12 12 13 12 12 15 19 19 16 14 15 13 12 11 11 9 9 9 8 7 9 8 5
6 4 3 7 5 5 5 5 7 10 12 13 13 13 12 13 15 11 14 20 15 14 15 13 13 11 15 16 11 15 16 13 10 9 8 9 10 9 7 6 7 6 5
7 7 10 6 4 5 5 5 5 6 8 8 8 8 11 11 10 13 13 15 18 15 14 13 12 9 7 8 15 16 9 9 8 7 8 9 9 7 3 3 3 5 5
8 9 8 7 7 5 4 4 4 3 4 5 4 6 9 10 8 9 8 7 13 9 15 14 13 9 9 11 9 9 8 10 7 9 8 8 2 3 5 4 4 6 4
5 6 7 6 7 7 7 6 5 4 2 3 4 5 5 5 6 10 9 10 9 7 4 7 8 8 9 9 8 8 6 4 6 8 7 6 4 4 3 4 3 5 5
6 5 5 6 7 6 7 8 1 4 3 4 1 2 4 2 11 12 13 13 13 10 3 9 9 9 9 9 9 8 6 8 8 6 6 6 5 5 5 4 3 4 5
7 7 5 5 6 7 7 6 7 5 4 4 6 3 4 8 12 11 11 10 10 5 4 8 7 8 9 8 9 9 9 9 8 6 6 6 4 5 6 6 5 5 5
6 6 5 5 5 6 7 7 6 6 7 8 5 8 10 12 12 7 10 7 3 2 2 5 6 6 7 8 7 8 8 7 7 7 6 5 6 6 6 6 7 7 4
1 2 4 4 4 3 5 6 6 6 7 7 7 7 10 11 7 10 9 4 4 4 5 4 4 5 6 6 7 6 9 8 8 6 5 6 6 7 6 5 5 7 7
2 2 3 3 3 3 3 4 4 5 6 6 7 9 10 8 6 6 5 5 5 5 6 5 5 5 5 5 5 3 4 5 4 3 3 5 5 6 5 7 7 7 7
4 3 3 2 3 2 3 2 4 5 6 6 6 6 11 8 7 6 5 5 5 5 6 7 5 5 5 5 5 4 3 2 2 1 2 3 5 5 5 5 6 5 8
4 4 3 3 3 3 4 4 4 5 5 5 6 6 6 5 6 6 6 5 5 5 4 5 5 5 5 6 6 5 4 4 4 2 1 2 3 4 5 5 6 6 7
5 4 4 3 4 3 4 4 4 5 5 5 5 5 6 5 5 5 5 5 5 5 5 4 4 5 5 5 6 5 4 4 4 5 2 2 3 3 4 5 6 6 7
4 4 4 4 4 5 4 4 4 3 4 4 4 4 5 5 4 4 4 4 4 4 3 4 3 5 5 5 8 8 8 7 7 5 4 3 3 4 4 4 4 4 4
4 4 5 5 5 5 5 5 5 5 6 5 5 4 4 4 4 4 3 2 2 2 3 3 5 4 4 6 7 10 13 15 9 8 4 2 2 4 4 4 5 5 5
5 5 4 5 5 5 5 6 7 6 7 7 6 6 5 5 4 4 2 2 3 2 2 1 4 7 7 6 8 10 13 15 14 12 5 2 1 2 3 4 6 4 6
Wind_Direction
203 195 195 200 207 200 197 214 217 212 210 211 214 216 214 216 213 217 228 225 221 227 232 238 250 237 263 253 236 243 247 237 270 290 283 290 303 301 303 302 289 280 271
196 192 196 202 203 212 207 206 212 219 215 220 223 221 224 225 227 227 232 233 230 236 244 243 252 250 251 254 256 259 263 262 267 287 292 292 279 295 294 293 292 284 272
193 199 200 205 206 213 216 209 213 217 223 228 224 230 229 234 238 239 239 239 242 243 246 248 256 257 257 267 264 271 273 269 263 269 290 295 282 289 294 284 279 289 273
197 200 201 204 209 212 213 216 215 216 218 226 234 236 238 243 244 245 243 244 246 249 250 250 253 252 254 259 263 268 270 272 274 270 276 290 287 287 285 287 297 285 284
191 195 203 208 210 213 208 218 227 225 226 226 232 236 239 242 244 242 245 245 248 253 255 256 255 254 250 246 262 267 269 268 275 279 275 282 286 291 296 301 293 293 292
186 194 193 195 198 204 212 217 224 230 230 230 232 238 241 243 237 216 238 252 254 256 259 257 256 247 248 238 238 246 254 265 269 272 280 281 284 283 293 293 294 294 298
194 191 199 190 203 210 213 218 223 228 232 233 236 237 240 243 225 218 217 246 257 257 256 259 263 263 243 258 242 232 247 245 243 262 269 270 280 285 293 289 280 260 253
205 206 201 185 205 202 207 207 221 227 232 232 235 234 238 241 221 217 220 237 251 253 256 258 258 262 259 260 266 269 267 268 254 235 244 259 266 273 270 280 288 287 21
209 213 222 225 222 219 220 224 229 226 231 234 233 233 234 243 223 218 215 242 251 253 255 254 252 255 256 234 251 263 269 270 264 232 244 256 259 260 257 272 248 229 224
141 271 243 272 240 232 239 238 239 235 240 242 244 240 237 244 229 215 207 241 250 254 257 255 238 246 255 232 245 260 265 266 273 278 256 248 255 264 232 231 251 233 205
47 321 345 17 325 288 273 263 263 255 253 253 252 252 249 246 247 210 203 232 244 250 253 257 256 221 231 244 228 251 253 266 273 272 273 273 267 259 251 223 231 226 208
31 299 336 35 352 318 306 286 273 259 255 256 255 254 255 251 237 229 208 215 240 250 257 259 261 234 224 232 233 239 245 256 267 267 269 266 269 262 244 234 220 221 227
14 1 25 20 353 317 326 320 299 294 243 249 246 251 259 263 261 228 226 226 228 241 254 264 271 267 254 246 238 245 233 249 251 245 247 258 265 275 220 202 173 143 119
15 18 14 355 344 334 315 297 299 335 355 332 275 256 265 273 263 257 249 246 246 230 250 261 263 276 280 278 291 251 243 258 248 255 265 276 281 165 204 185 182 181 191
17 33 27 4 1 355 344 333 329 5 352 7 11 326 328 312 330 332 314 276 273 267 243 258 262 254 255 255 252 243 235 200 225 245 252 257 222 193 198 188 179 187 221
336 20 31 15 10 359 344 337 139 317 122 108 197 72 18 290 312 317 319 306 293 286 220 241 251 258 251 255 258 257 226 229 229 234 249 262 233 197 188 192 202 200 222
344 343 8 30 13 358 348 343 336 337 167 156 39 6 8 295 306 306 312 311 277 206 223 245 240 246 250 248 248 250 258 258 241 240 255 241 202 202 196 193 197 171 196
2 333 337 8 13 3 351 340 334 340 340 338 4 358 353 340 338 345 331 307 313 255 285 273 270 270 264 264 257 258 261 259 251 251 240 201 192 202 195 196 194 158 167
238 55 346 343 326 342 346 332 340 344 350 337 340 339 356 338 353 3 348 10 356 353 344 334 330 301 282 267 258 262 273 267 265 241 226 202 199 202 206 177 155 154 158
329 305 278 286 309 346 359 323 332 344 2 354 354 354 345 327 9 22 21 15 12 359 351 345 356 353 333 338 336 312 291 273 260 224 195 195 194 197 190 176 183 174 178
258 244 237 274 320 334 299 330 346 358 360 356 4 4 342 329 353 9 21 21 22 2 358 346 359 355 347 340 309 337 358 336 295 221 204 194 187 182 177 181 175 180 181
270 266 262 287 300 318 334 340 348 355 352 348 354 5 335 360 356 360 9 12 7 20 5 355 349 1 352 349 347 354 1 5 19 29 139 169 189 168 159 165 171 171 182
267 251 254 271 296 301 309 338 340 340 338 336 335 341 351 357 4 10 1 8 13 360 353 7 13 348 357 3 351 349 351 347 333 317 320 187 174 158 158 175 179 182 183
282 262 260 279 288 304 307 311 311 287 301 302 302 309 318 325 336 354 7 15 22 9 350 350 355 10 359 6 352 348 350 339 316 309 305 210 174 154 160 167 183 184 199
297 273 271 280 294 300 302 300 294 295 296 297 293 290 293 291 304 320 338 347 24 14 353 348 343 349 350 12 6 358 346 345 336 328 330 309 220 177 170 179 183 189 184
305 296 288 277 277 274 277 290 297 298 292 294 291 287 282 277 279 287 298 302 309 309 325 345 346 337 343 353 354 353 1 353 341 343 324 328 248 207 188 197 195 184 187